Riverton, WY

8:43 AM MST on February 21, 2017 (GMT -0700)
Thermopolis

Weather History for KTBX - March, 2013

Change the Weather History Date:

Saturday, March 9, 2013

  Actual Average (KRIW) Record (KRIW)
Temperature  
Mean Temperature 24 °F -  
Max Temperature 28 °F 47 °F 68 °F (2005)
Min Temperature 19 °F 18 °F -4 °F (2002)
Degree Days  
Heating Degree Days 42    
Moisture  
Dew Point 19 °F    
Average Humidity 77    
Maximum Humidity 93    
Minimum Humidity 59    
Precipitation  
Precipitation 0.00 in - - ()
Sea Level Pressure  
Sea Level Pressure 29.96 in    
Wind  
Wind Speed 40 mph (NW)    
Max Wind Speed 59 mph    
Max Gust Speed 67 mph    
Visibility 9 miles    
Events Snow    
Averages and records for this station are not official NWS values.
T = Trace of Precipitation, MM = Missing Value Source: NWS Daily Summary

Daily Weather History Graph

Daily Weather History Graph

Search for Another Location

Airport or City:

Trip Planner

Search our weather history database for the weather conditions in past years. The results will help you decide how hot, cold, wet, or windy it might be!

Date:

Astronomy

Mar. 09, 2013 Rise Set
Actual Time 6:35 AM MST 6:12 PM MST
Civil Twilight 6:06 AM MST 6:40 PM MST
Nautical Twilight 5:33 AM MST 7:13 PM MST
Astronomical Twilight 5:00 AM MST 7:47 PM MST
Moon 5:04 AM MST (3/9) 4:15 PM MST (3/9)
Length of Visible Light 12h 34m
Length of Day
11h 37m
Waning Crescent, 5% of the Moon is Illuminated
Mar 9
Waning Crescent
Mar 11
New
Mar 19
First Quarter
Mar 27
Full
Apr 2
Last Quarter

Hourly Weather History & Observations

Time (MST) Temp. Windchill Dew Point Humidity Pressure Visibility Wind Dir Wind Speed Gust Speed Precip Events Conditions
12:15 AM 26.6 °F 10.3 °F 23.0 °F 86% 29.85 in 10.0 mi NW 29.9 mph - N/A   Overcast
12:35 AM 26.6 °F 9.8 °F 23.0 °F 86% 29.85 in 10.0 mi NW 32.2 mph - N/A   Mostly Cloudy
12:55 AM 26.6 °F 10.3 °F 24.8 °F 93% 29.85 in 10.0 mi NW 29.9 mph - N/A   Mostly Cloudy
1:15 AM 26.6 °F 10.0 °F 24.8 °F 93% 29.86 in 10.0 mi NW 31.1 mph - N/A   Overcast
1:35 AM 26.6 °F 10.0 °F 24.8 °F 93% 29.86 in 10.0 mi NW 31.1 mph - N/A   Overcast
1:55 AM 26.6 °F 9.6 °F 24.8 °F 93% 29.85 in 5.0 mi NW 33.4 mph - N/A Snow Light Snow
2:15 AM 26.6 °F 8.9 °F 24.8 °F 93% 29.85 in 10.0 mi NW 36.8 mph - N/A Snow Light Snow
2:35 AM 26.6 °F 8.7 °F 24.8 °F 93% 29.85 in 7.0 mi NW 38.0 mph - N/A Snow Light Snow
2:55 AM 26.6 °F 8.9 °F 24.8 °F 93% 29.84 in 10.0 mi NW 36.8 mph - N/A Snow Light Snow
3:15 AM 26.6 °F 8.1 °F 24.8 °F 93% 29.83 in 10.0 mi NW 41.4 mph - N/A   Overcast
3:35 AM 26.6 °F 8.5 °F 24.8 °F 93% 29.84 in 10.0 mi NW 39.1 mph - N/A   Overcast
3:55 AM 26.6 °F 8.3 °F 24.8 °F 93% 29.84 in 10.0 mi NW 40.3 mph - N/A   Overcast
4:15 AM 26.6 °F 7.9 °F 24.8 °F 93% 29.84 in 7.0 mi WNW 42.6 mph - N/A   Overcast
4:35 AM 26.6 °F 7.5 °F 24.8 °F 93% 29.84 in 4.0 mi NW 44.9 mph - N/A Snow Light Snow
5:15 AM 26.6 °F 7.7 °F 24.8 °F 93% 29.86 in 3.0 mi WNW 43.7 mph - N/A Snow Light Snow
5:35 AM 26.6 °F 8.1 °F 23.0 °F 86% 29.87 in 3.0 mi WNW 41.4 mph - N/A Snow Light Snow
5:55 AM 26.6 °F 7.5 °F 23.0 °F 86% 29.86 in 7.0 mi WNW 44.9 mph - N/A Snow Light Snow
6:15 AM 26.6 °F 7.1 °F 23.0 °F 86% 29.86 in 4.0 mi WNW 47.2 mph - N/A Snow Light Snow
6:35 AM 26.6 °F 7.1 °F 23.0 °F 86% 29.86 in 10.0 mi WNW 47.2 mph - N/A Snow Light Snow
6:55 AM 24.8 °F 5.3 °F 21.2 °F 86% 29.88 in 10.0 mi WNW 42.6 mph - N/A Snow Light Snow
7:15 AM 24.8 °F 4.6 °F 21.2 °F 86% 29.88 in 10.0 mi WNW 47.2 mph - N/A Snow Light Snow
7:35 AM 24.8 °F 4.8 °F 21.2 °F 86% 29.89 in 5.0 mi WNW 46.0 mph - N/A Snow Light Snow
7:55 AM 24.8 °F 5.1 °F 19.4 °F 80% 29.91 in 7.0 mi NW 43.7 mph - N/A Snow Light Snow
8:15 AM 24.8 °F 5.7 °F 19.4 °F 80% 29.92 in 10.0 mi WNW 40.3 mph - N/A   Overcast
8:35 AM 24.8 °F 6.4 °F 17.6 °F 74% 29.93 in 10.0 mi NW 36.8 mph - N/A   Overcast
8:55 AM 24.8 °F 5.3 °F 17.6 °F 74% 29.92 in 10.0 mi NW 42.6 mph 48.3 mph N/A   Overcast
9:15 AM 23.0 °F 2.2 °F 19.4 °F 86% 29.91 in 10.0 mi NW 46.0 mph - N/A   Overcast
9:35 AM 23.0 °F 2.0 °F 19.4 °F 86% 29.91 in 10.0 mi NW 47.2 mph - N/A   Overcast
10:15 AM 24.8 °F 4.4 °F 19.4 °F 80% 29.91 in 10.0 mi NW 48.3 mph - N/A   Mostly Cloudy
10:35 AM 26.6 °F 6.8 °F 19.4 °F 74% 29.91 in 10.0 mi NW 49.5 mph 55.2 mph N/A   Overcast
10:55 AM 26.6 °F 6.3 °F 19.4 °F 74% 29.92 in 10.0 mi NW 52.9 mph - N/A   Overcast
11:15 AM 26.6 °F 6.1 °F 19.4 °F 74% 29.92 in 10.0 mi NW 54.1 mph 58.7 mph N/A   Overcast
11:35 AM 26.6 °F 5.8 °F 19.4 °F 74% 29.92 in 10.0 mi NW 56.4 mph 62.1 mph N/A   Overcast
11:55 AM 26.6 °F 5.5 °F 19.4 °F 74% 29.92 in 10.0 mi NW 58.7 mph - N/A   Overcast
12:15 PM 26.6 °F 6.3 °F 17.6 °F 69% 29.94 in 10.0 mi NW 52.9 mph 61.0 mph N/A   Overcast
12:35 PM 26.6 °F 5.7 °F 19.4 °F 74% 29.92 in 10.0 mi NW 57.5 mph 63.3 mph N/A   Overcast
12:55 PM 26.6 °F 6.3 °F 19.4 °F 74% 29.94 in 10.0 mi NW 52.9 mph 66.7 mph N/A   Overcast
1:15 PM 28.4 °F 9.0 °F 17.6 °F 64% 29.97 in 10.0 mi NW 51.8 mph 61.0 mph N/A   Overcast
1:35 PM 28.4 °F 8.9 °F 17.6 °F 64% 29.95 in 10.0 mi NW 52.9 mph 57.5 mph N/A   Overcast
1:55 PM 28.4 °F 8.3 °F 17.6 °F 64% 29.94 in 10.0 mi NW 57.5 mph 63.3 mph N/A   Mostly Cloudy
2:15 PM 28.4 °F 8.3 °F 17.6 °F 64% 29.94 in 10.0 mi NW 57.5 mph 61.0 mph N/A   Scattered Clouds
2:35 PM 28.4 °F 8.9 °F 15.8 °F 59% 29.96 in 10.0 mi NW 52.9 mph 58.7 mph N/A   Scattered Clouds
2:55 PM 28.4 °F 8.9 °F 15.8 °F 59% 29.96 in 10.0 mi NW 52.9 mph 61.0 mph N/A   Scattered Clouds
3:15 PM 28.4 °F 9.5 °F 15.8 °F 59% 29.98 in 10.0 mi NW 48.3 mph 54.1 mph N/A   Scattered Clouds
3:35 PM 28.4 °F 10.2 °F 15.8 °F 59% 30.01 in 10.0 mi NW 43.7 mph 54.1 mph N/A   Mostly Cloudy
3:55 PM 28.4 °F 8.7 °F 15.8 °F 59% 29.99 in 10.0 mi NW 54.1 mph 61.0 mph N/A   Mostly Cloudy
4:15 PM 26.6 °F 6.0 °F 15.8 °F 64% 30.00 in 10.0 mi NW 55.2 mph 59.8 mph N/A   Mostly Cloudy
4:35 PM 26.6 °F 6.0 °F 14.0 °F 59% 30.00 in 10.0 mi NW 55.2 mph 59.8 mph N/A   Mostly Cloudy
4:55 PM 26.6 °F 6.6 °F 15.8 °F 64% 30.01 in 10.0 mi NNW 50.6 mph 56.4 mph N/A   Mostly Cloudy
5:15 PM 26.6 °F 5.8 °F 14.0 °F 59% 29.99 in 10.0 mi NW 56.4 mph 62.1 mph N/A   Scattered Clouds
5:35 PM 26.6 °F 6.1 °F 14.0 °F 59% 30.01 in 10.0 mi NW 54.1 mph - N/A   Mostly Cloudy
5:55 PM 26.6 °F 5.8 °F 14.0 °F 59% 30.00 in 10.0 mi NW 56.4 mph 61.0 mph N/A   Scattered Clouds
6:15 PM 24.8 °F 3.9 °F 14.0 °F 64% 30.02 in 10.0 mi NW 51.8 mph - N/A   Clear
6:35 PM 24.8 °F 4.0 °F 14.0 °F 64% 30.04 in 10.0 mi NW 50.6 mph 55.2 mph N/A   Clear
7:15 PM 23.0 °F 2.8 °F 15.8 °F 74% 30.08 in 10.0 mi NW 42.6 mph - N/A   Clear
7:35 PM 23.0 °F 3.7 °F 15.8 °F 74% 30.10 in 10.0 mi NW 38.0 mph - N/A   Clear
7:55 PM 23.0 °F 4.1 °F 15.8 °F 74% 30.11 in 10.0 mi NW 35.7 mph - N/A   Clear
8:15 PM 23.0 °F 4.1 °F 14.0 °F 68% 30.12 in 10.0 mi NNW 35.7 mph - N/A   Clear
8:35 PM 23.0 °F 4.9 °F 14.0 °F 68% 30.14 in 10.0 mi NW 32.2 mph - N/A   Clear
8:55 PM 23.0 °F 5.4 °F 14.0 °F 68% 30.15 in 10.0 mi NW 29.9 mph - N/A   Clear
9:15 PM 21.2 °F 2.7 °F 14.0 °F 74% 30.15 in 10.0 mi NW 31.1 mph - N/A   Clear
9:35 PM 21.2 °F 2.7 °F 14.0 °F 74% 30.16 in 10.0 mi NW 31.1 mph - N/A   Clear
9:55 PM 21.2 °F 2.7 °F 14.0 °F 74% 30.16 in 10.0 mi NW 31.1 mph - N/A   Clear
10:15 PM 21.2 °F 2.7 °F 14.0 °F 74% 30.16 in 10.0 mi NW 31.1 mph - N/A   Clear
10:35 PM 21.2 °F 3.0 °F 14.0 °F 74% 30.16 in 10.0 mi NW 29.9 mph - N/A   Clear
10:55 PM 19.4 °F 1.1 °F 14.0 °F 80% 30.17 in 10.0 mi NW 27.6 mph - N/A   Clear
11:15 PM 19.4 °F 2.1 °F 14.0 °F 80% 30.18 in 10.0 mi NW 24.2 mph - N/A   Clear
11:35 PM 19.4 °F 1.4 °F 14.0 °F 80% 30.18 in 10.0 mi WNW 26.5 mph - N/A   Clear
11:55 PM 19.4 °F 0.8 °F 14.0 °F 80% 30.16 in 10.0 mi NW 28.8 mph - N/A   Clear